Tracking 17921 objects as of 18-January-2017
HD Live streaming from Space Station
objects crossing your sky now

AMC-5 (GE-5)

Track AMC-5 (GE-5) now!
AMC-5 (GE-5) is classified as:


NORAD ID: 25516
Int'l Code: 1998-063B
Perigee: 36,036.4 km
Apogee: 36,080.3 km
Inclination: 5.1 °
Period: 1,449.6 minutes
Semi major axis: 42429 km
RCS: 9.3322 m2 (large)
Launch date: October 28, 1998
Source: SOCIETE EUROPEENNE DES SATELLITES (SES)
Launch site: FRENCH GUIANA (FRGUI)

Broadband internet, business television; 16 Ku-band; CONUS
Your satellite tracking list
Your tracking list is empty





NASA's NSSDC Master Catalog

Two Line Element Set (TLE):
1 25516U 98063B   17017.73377955 -.00000046  00000-0  00000+0 0  9997
2 25516   5.1145  61.4546 0005174 235.1254 277.7467  0.99335157 66703
Source of the keplerian elements: AFSPC